User: anonymous   Login
Location: Unspecified
(0.0000°N, 0.0000°E)
Time: 19:34:52
(UTC+02:00)
Language:

Cosmos 1933 - Orbit

View from above orbital plane
View from above orbital plane
View from above satellite
View from above satellite

Ground track
Ground track

The orbit data is extracted from the following two-line orbital elements,

1 18958U 88020A   18112.71149878  .00000054  00000-0  18546-5 0  9995
2 18958  82.5299 165.1459 0010268 315.0871  44.9524 15.03428260638030
Epoch (UTC): 22 April 2018 17:04:33
Eccentricity: 0.0010268
inclination: 82.5299°
perigee height: 549 km
apogee height: 563 km
right ascension of ascending node: 165.1459°
argument of perigee: 315.0871°
revolutions per day: 15.03428260
mean anomaly at epoch: 44.9524°
orbit number at epoch: 63803

The dashed part of the orbit path shows where the satellite is in the earth's shadow,  

DLR